[[{"header":{"parameterUnit":"m.s-1","parameterCategory":1,"la1":30.2991,"la2":30.254,"lo1":-89.0895,"lo2":-89.0444,"dy":0.0017,"dx":0.0017,"nx":28,"ny":28,"refTime":"2025-12-11T03:00:00:Z","depth":0,"parameterNumber":2,"parameterNumberName":"U-component_of_WINDS"},"data":[0,0,0,0,0,0,0,0,0,0,0,0,0,0,0,0,0,0,0,0,0,0,0,0,0,0,0,0,0,0,0,0,0,0,0,0,0,0,0,0,0,0,0,0,0,0,0,0,0,0,0,0,0,0,0,0,0,0,0.7635,0.7635,0,0.7629,0.7629,0.7629,0.7626,0.7626,0.7626,0.7626,0.7619,0.7618,0.7618,0,0,0,0,0,0,0,0,0,0,0,0,0,0.7642,0.7642,0.7635,0.7635,0.7635,0.7629,0.7629,0.7629,0.7626,0.7626,0.7626,0.7626,0.7619,0.7618,0.7618,0,0,0,0,0,0,0,0,0,0,0,0,0,0.7638,0.7642,0.7635,0.7632,0.7632,0.7629,0.7629,0.7629,0.7626,0.7626,0.7626,0.7626,0.7619,0.7618,0.7618,0.7617,0,0,0.7617,0.7617,0,0,0,0,0,0,0,0,0.7638,0.7638,0.7633,0.7633,0.7632,0.7628,0.7629,0.7625,0.7626,0.7628,0.7626,0.7626,0.7622,0.7621,0.762,0.7616,0.7616,0.7617,0.7617,0.7617,0.7617,0,0,0,0,0,0,0,0.7639,0.7638,0.7633,0.7633,0.7632,0.7631,0.7631,0.7628,0.7625,0.7628,0.7628,0.7627,0.7621,0.762,0.762,0.7616,0.7617,0.7617,0.7617,0.7617,0.7612,0.7612,0,0,0,0,0,0,0.7639,0.7638,0.7633,0.7632,0.7635,0.7631,0.7631,0.7629,0.7625,0.7624,0.7627,0.7627,0.7621,0.762,0.762,0.7618,0.7617,0.7617,0.7617,0.7612,0.7612,0.7612,0,0,0,0,0,0,0.764,0.7639,0.7633,0.7635,0.7634,0.7631,0.763,0.7629,0.7628,0.7624,0.7624,0.7627,0.7621,0.762,0.7618,0.7618,0.7617,0.7616,0.7611,0.7612,0.7612,0.7614,0,0,0,0,0,0,0.764,0.7639,0.7638,0.7635,0.7634,0.7631,0.763,0.7629,0.7628,0.7628,0.7624,0.7623,0.7621,0.7618,0.7617,0.7617,0.7616,0.7611,0.7612,0.7612,0.7614,0.7615,0.7615,0,0,0,0,0,0.764,0.7639,0.7638,0.7638,0.7634,0.7631,0.7631,0.7628,0.7628,0.7627,0.7625,0.7623,0.7618,0.7618,0.7617,0.7617,0.7611,0.7611,0.7612,0.7614,0.7615,0.7615,0,0,0,0,0,0,0.7642,0.7639,0.7638,0.7636,0.7634,0.7631,0.763,0.7629,0.7626,0.7626,0.7623,0.7622,0.762,0.7618,0.7618,0.7616,0.7614,0.7614,0.7617,0.7617,0.7617,0.7618,0.7616,0,0,0,0,0,0.7642,0.7641,0.7638,0.7637,0.7636,0.7633,0.7632,0.763,0.7628,0.7627,0.7625,0.7622,0.762,0.7618,0.7616,0.7614,0.7613,0.7614,0.7614,0.7614,0.7614,0.7613,0.7613,0.7612,0.7612,0.7612,0,0,0.7642,0.7641,0.764,0.7637,0.7635,0.7634,0.7632,0.7631,0.7629,0.7627,0.7624,0.7623,0.762,0.7618,0.7617,0.7616,0.7614,0.7614,0.7614,0.7614,0.7613,0.7613,0.7614,0.7612,0.7612,0.7612,0,0,0.7642,0.7641,0.764,0.7638,0.7636,0.7634,0.7634,0.7631,0.763,0.7628,0.7626,0.7625,0.7621,0.7619,0.7617,0.7618,0.7616,0.7617,0.7618,0.7617,0.7617,0.7617,0.7618,0.7618,0.7617,0.7617,0.7617,0,0.7643,0.7641,0.7639,0.7638,0.7637,0.7635,0.7634,0.7632,0.7629,0.7628,0.7628,0.7624,0.7621,0.7619,0.7619,0.7618,0.7618,0.7617,0.7618,0.7618,0.7618,0.7618,0.7618,0.7617,0.7617,0.7617,0.7617,0,0.7641,0.764,0.7639,0.7637,0.7636,0.7635,0.7633,0.7632,0.7631,0.7629,0.7627,0.7625,0.7622,0.7622,0.762,0.762,0.7619,0.7618,0.7617,0.7618,0.7618,0.7618,0.7617,0.7617,0.7617,0.7617,0,0,0.7641,0.7639,0.7639,0.7638,0.7636,0.7635,0.7633,0.7632,0.7631,0.7629,0.7628,0.7625,0.7625,0.7623,0.7621,0.7621,0.7621,0.762,0.762,0.762,0.762,0.7621,0.7621,0.762,0.762,0.762,0.7621,0,0.7641,0.7639,0.7638,0.7636,0.7635,0.7634,0.7633,0.7631,0.763,0.7629,0.7627,0.7626,0.7625,0.7624,0.7623,0.7621,0.7621,0.7621,0.7619,0.7619,0.7619,0.7621,0.7621,0.7622,0.7621,0.7621,0.7621,0,0.7639,0.7638,0.7637,0.7636,0.7635,0.7634,0.7633,0.7631,0.763,0.7629,0.7628,0.7626,0.7625,0.7625,0.7623,0.7623,0.7622,0.7621,0.7621,0.762,0.7619,0.762,0.7622,0.7621,0.762,0.762,0.762,0,0.7639,0.7638,0.7637,0.7636,0.7634,0.7634,0.7633,0.7631,0.7631,0.7629,0.7629,0.7627,0.7626,0.7625,0.7623,0.7623,0.7621,0.7621,0.7621,0.7621,0.762,0.762,0.7621,0.762,0.762,0.762,0.762,0,0.7639,0.7638,0.7637,0.7636,0.7635,0.7634,0.7633,0.7632,0.7631,0.763,0.7629,0.7628,0.7626,0.7625,0.7624,0.7622,0.7622,0.7621,0.7621,0.7621,0.7621,0.762,0.762,0.762,0.762,0.762,0.762,0,0.7638,0.7638,0.7636,0.7635,0.7635,0.7634,0.7633,0.7632,0.7632,0.7631,0.763,0.7629,0.7627,0.7626,0.7624,0.7623,0.7622,0.7621,0.7622,0.7622,0.7622,0.7622,0.7622,0.7622,0.7621,0.7621,0.7621,0,0.7637,0.7637,0.7636,0.7636,0.7635,0.7634,0.7634,0.7633,0.7632,0.7631,0.763,0.7629,0.7628,0.7626,0.7624,0.7623,0.7622,0.7623,0.7622,0.7622,0.7622,0.7622,0.7622,0.7622,0.7622,0.7622,0.7622,0,0.7636,0.7636,0.7636,0.7635,0.7634,0.7634,0.7633,0.7633,0.7632,0.7631,0.763,0.7629,0.7628,0.7626,0.7625,0.7624,0.7623,0.7623,0.7623,0.7623,0.7623,0.7623,0.7622,0.7623,0.7623,0.7623,0.7623,0.7623,0.7636,0.7635,0.7635,0.7634,0.7634,0.7633,0.7633,0.7632,0.7631,0.763,0.763,0.7629,0.7628,0.7626,0.7625,0.7624,0.7624,0.7624,0.7624,0.7624,0.7624,0.7624,0.7624,0.7624,0.7624,0.7624,0.7624,0,0.7634,0.7634,0.7634,0.7633,0.7633,0.7633,0.7632,0.7632,0.7631,0.763,0.763,0.7629,0.7628,0.7627,0.7626,0.7625,0.7625,0.7625,0.7625,0.7624,0.7624,0.7624,0.7625,0.7625,0.7625,0.7625,0.7625,0.7625,0.7634,0.7633,0.7633,0.7632,0.7632,0.7632,0.7631,0.7631,0.763,0.763,0.7629,0.7628,0.7628,0.7627,0.7626,0.7626,0.7625,0.7625,0.7625,0.7624,0.7624,0.7624,0.7624,0.7625,0.7625,0.7625,0.7625,0.7625]},{"header":{"parameterUnit":"m.s-1","parameterCategory":1,"la1":30.2991,"la2":30.254,"lo1":-89.0895,"lo2":-89.0444,"dy":0.0017,"dx":0.0017,"nx":28,"ny":28,"refTime":"2025-12-11T03:00:00:Z","depth":0,"parameterNumber":3,"parameterNumberName":"V-component_of_WINDS"},"data":[0,0,0,0,0,0,0,0,0,0,0,0,0,0,0,0,0,0,0,0,0,0,0,0,0,0,0,0,0,0,0,0,0,0,0,0,0,0,0,0,0,0,0,0,0,0,0,0,0,0,0,0,0,0,0,0,0,0,-4.2626,-4.2627,0,-4.2789,-4.2791,-4.2793,-4.276,-4.2757,-4.2754,-4.2751,-4.2918,-4.2925,-4.2932,0,0,0,0,0,0,0,0,0,0,0,0,0,-4.2283,-4.229,-4.2625,-4.2627,-4.2629,-4.2789,-4.2791,-4.2794,-4.2761,-4.2757,-4.2753,-4.275,-4.2916,-4.2924,-4.2933,0,0,0,0,0,0,0,0,0,0,0,0,0,-4.2438,-4.2292,-4.2625,-4.2632,-4.2634,-4.2789,-4.2791,-4.2794,-4.2761,-4.2757,-4.2752,-4.2748,-4.2913,-4.2923,-4.2934,-4.3091,0,0,-4.2967,-4.2972,0,0,0,0,0,0,0,0,-4.2429,-4.2451,-4.2629,-4.2632,-4.2635,-4.275,-4.2732,-4.2894,-4.2762,-4.2713,-4.2751,-4.2746,-4.2866,-4.288,-4.2921,-4.3099,-4.3106,-4.2968,-4.2975,-4.298,-4.2983,0,0,0,0,0,0,0,-4.2419,-4.2443,-4.269,-4.2632,-4.2635,-4.2627,-4.2644,-4.2762,-4.2813,-4.2717,-4.2715,-4.2735,-4.2866,-4.291,-4.2924,-4.3108,-4.2968,-4.2978,-4.2984,-4.2989,-4.3425,-4.343,0,0,0,0,0,0,-4.2405,-4.2435,-4.2685,-4.2695,-4.2519,-4.2637,-4.2656,-4.2717,-4.2811,-4.2821,-4.2739,-4.2733,-4.2894,-4.2912,-4.293,-4.3121,-4.2979,-4.299,-4.2996,-4.342,-4.3426,-4.3431,0,0,0,0,0,0,-4.2398,-4.2428,-4.2678,-4.2564,-4.2596,-4.2648,-4.2717,-4.2723,-4.2767,-4.2828,-4.2836,-4.2775,-4.2891,-4.2915,-4.3052,-4.3126,-4.2994,-4.3004,-4.3414,-4.3422,-4.3429,-4.3504,0,0,0,0,0,0,-4.2388,-4.2426,-4.2486,-4.2566,-4.2602,-4.2798,-4.2721,-4.2729,-4.2786,-4.278,-4.2863,-4.2873,-4.2889,-4.3036,-4.3062,-4.3139,-4.3013,-4.3407,-4.3417,-4.3426,-4.3495,-4.3513,-4.3529,0,0,0,0,0,-4.2376,-4.25,-4.2489,-4.2519,-4.2678,-4.2802,-4.2822,-4.2839,-4.2792,-4.2853,-4.2892,-4.287,-4.3114,-4.305,-4.308,-4.3161,-4.3403,-4.3414,-4.3425,-4.3488,-4.351,-4.3528,0,0,0,0,0,0,-4.2427,-4.2511,-4.2499,-4.2653,-4.2721,-4.2796,-4.2874,-4.2862,-4.2944,-4.2935,-4.2952,-4.2971,-4.3111,-4.3149,-4.3077,-4.3318,-4.3251,-4.3269,-4.3288,-4.331,-4.3326,-4.3315,-4.3022,0,0,0,0,0,-4.2456,-4.2549,-4.2617,-4.2746,-4.2781,-4.2822,-4.2876,-4.2883,-4.2954,-4.2982,-4.3031,-4.3101,-4.3193,-4.3253,-4.3341,-4.35,-4.3518,-4.357,-4.3587,-4.3601,-4.3616,-4.3705,-4.3729,-4.3469,-4.3469,-4.3469,0,0,-4.2517,-4.2574,-4.2632,-4.2758,-4.2811,-4.2908,-4.2846,-4.2951,-4.3023,-4.2998,-4.3131,-4.3169,-4.3248,-4.3397,-4.3464,-4.3433,-4.3692,-4.3615,-4.3626,-4.3634,-4.3719,-4.3743,-4.3765,-4.3477,-4.3475,-4.3474,0,0,-4.2677,-4.273,-4.2844,-4.2899,-4.298,-4.3007,-4.3034,-4.3112,-4.3137,-4.327,-4.3254,-4.334,-4.3498,-4.3555,-4.3604,-4.3787,-4.3771,-4.3815,-4.3904,-4.399,-4.401,-4.4029,-4.4095,-4.4119,-4.3831,-4.3831,-4.3831,0,-4.2743,-4.2888,-4.2903,-4.3011,-4.3067,-4.3049,-4.3165,-4.3217,-4.3323,-4.3363,-4.3325,-4.3524,-4.3576,-4.3738,-4.3783,-4.3823,-4.3856,-4.3807,-4.4006,-4.4025,-4.4042,-4.4106,-4.4131,-4.3836,-4.3835,-4.3835,-4.3834,0,-4.2965,-4.3066,-4.3148,-4.3252,-4.3318,-4.3428,-4.346,-4.3524,-4.3526,-4.3556,-4.3693,-4.3754,-4.3855,-4.3893,-4.3895,-4.4057,-4.4035,-4.4002,-4.3935,-4.4071,-4.4132,-4.4156,-4.3843,-4.3841,-4.384,-4.3838,0,0,-4.3163,-4.3274,-4.3305,-4.3352,-4.3441,-4.352,-4.3629,-4.3729,-4.3784,-4.3857,-4.3951,-4.4085,-4.4056,-4.4112,-4.412,-4.4195,-4.4338,-4.4153,-4.4155,-4.4187,-4.4522,-4.4547,-4.4575,-4.4327,-4.4332,-4.4335,-4.4515,0,-4.3333,-4.3528,-4.3545,-4.372,-4.3814,-4.3799,-4.3895,-4.396,-4.3991,-4.4076,-4.4109,-4.4205,-4.4158,-4.4192,-4.4266,-4.4305,-4.4406,-4.4292,-4.4415,-4.4419,-4.4397,-4.4606,-4.4634,-4.4801,-4.4539,-4.4543,-4.4546,0,-4.3558,-4.364,-4.3824,-4.3901,-4.3941,-4.4027,-4.412,-4.4201,-4.4274,-4.4292,-4.4355,-4.4354,-4.4467,-4.4395,-4.4552,-4.4474,-4.4525,-4.4552,-4.4559,-4.4572,-4.4492,-4.4627,-4.4854,-4.488,-4.4583,-4.458,-4.4577,0,-4.3686,-4.3841,-4.3973,-4.4013,-4.4106,-4.4167,-4.4208,-4.4278,-4.4337,-4.4417,-4.4456,-4.4548,-4.4599,-4.4671,-4.4694,-4.464,-4.4851,-4.4781,-4.4869,-4.4869,-4.4916,-4.4913,-4.5156,-4.4946,-4.4946,-4.4945,-4.4945,0,-4.3875,-4.3989,-4.4031,-4.4112,-4.424,-4.4258,-4.4383,-4.4421,-4.4483,-4.4571,-4.4563,-4.4645,-4.467,-4.4758,-4.4776,-4.4904,-4.4927,-4.4945,-4.4949,-4.4947,-4.4945,-4.4981,-4.4971,-4.4952,-4.495,-4.4949,-4.4948,0,-4.404,-4.4073,-4.4215,-4.4291,-4.4313,-4.4404,-4.4469,-4.4547,-4.4577,-4.4688,-4.4715,-4.4762,-4.4864,-4.4894,-4.5017,-4.503,-4.518,-4.5173,-4.5156,-4.5157,-4.5244,-4.5236,-4.5521,-4.556,-4.5322,-4.5325,-4.5326,0,-4.416,-4.4247,-4.4333,-4.4392,-4.4436,-4.453,-4.459,-4.4612,-4.4675,-4.4766,-4.4833,-4.4934,-4.5016,-4.518,-4.5225,-4.5319,-4.5315,-4.5408,-4.5329,-4.5325,-4.5318,-4.5314,-4.5323,-4.5424,-4.5426,-4.5428,-4.543,0,-4.4369,-4.4381,-4.4468,-4.4562,-4.4634,-4.4709,-4.4781,-4.4829,-4.486,-4.4932,-4.5037,-4.51,-4.5226,-4.5327,-4.5423,-4.5465,-4.5454,-4.5454,-4.548,-4.548,-4.5467,-4.5477,-4.5199,-4.5448,-4.5446,-4.5445,-4.5444,-4.5443,-4.4516,-4.4593,-4.4666,-4.4764,-4.4821,-4.4888,-4.4966,-4.5005,-4.5093,-4.5198,-4.5205,-4.5319,-4.5391,-4.5518,-4.5565,-4.5655,-4.5627,-4.5664,-4.5674,-4.5683,-4.5692,-4.5451,-4.5672,-4.5671,-4.5671,-4.567,-4.567,0,-4.4726,-4.4772,-4.4862,-4.4963,-4.5041,-4.5023,-4.5101,-4.5167,-4.5268,-4.5336,-4.5417,-4.5539,-4.5637,-4.5689,-4.5787,-4.5848,-4.5846,-4.5874,-4.587,-4.588,-4.5709,-4.5678,-4.5874,-4.5874,-4.5874,-4.5874,-4.5874,-4.5874,-4.4844,-4.4975,-4.4996,-4.5155,-4.52,-4.5313,-4.536,-4.5422,-4.5477,-4.5613,-4.5694,-4.5728,-4.579,-4.5893,-4.5982,-4.5995,-4.6032,-4.6063,-4.6073,-4.5913,-4.5892,-4.5872,-4.5843,-4.6071,-4.6071,-4.6237,-4.6239,-4.624]}]]